This demonstration page uses our WeatherBlox Daily Observations layout. Learn more.

Left ArrowRight Arrow

Hourly Observations for August 24, 2015

Temp ( °F °C ) Dew Point ( °F °C ) Humidity (%) Winds ( mph kmh ) Pressure ( in mb ) Visibility ( mi km ) Precip ( " mm )
12:53 am 00:53 Partly Cloudy 69 20.6 61 16.1 76 76 NW 10 17 29.95 1014 10 16 N/A
1:53 am 01:53 Clear 67 19.4 59 15 76 76 WNW 9 15 29.96 1015 10 16 N/A
2:53 am 02:53 Clear 63 17.2 57 13.9 81 81 NW 6 9 29.96 1015 10 16 N/A
3:53 am 03:53 Clear 61 16.1 57 13.9 87 87 W 3 6 29.96 1015 10 16 N/A
4:53 am 04:53 Clear 59 15 57 13.9 93 93 W 3 6 29.96 1015 10 16 N/A
5:53 am 05:53 Clear 57 13.9 55 12.8 93 93 N N/A 29.98 1015 10 16 N/A
6:53 am 06:53 Clear 57 13.9 56 13.3 96 96 WNW 3 6 29.99 1016 10 16 N/A
7:53 am 07:53 Sunny 61 16.1 58 14.4 90 90 W 3 6 30.01 1016 10 16 N/A
8:53 am 08:53 Sunny 64 17.8 57 13.9 78 78 N N/A 30.01 1016 10 16 N/A
9:53 am 09:53 Sunny 69 20.6 57 13.9 66 66 VRB 7 11 30.02 1017 10 16 N/A
10:53 am 10:53 Mostly Sunny 72 22.2 52 11.1 50 50 W 9 15 30.01 1016 10 16 N/A
11:53 am 11:53 Sunny 73 22.8 50 10 44 44 W 9 15 30.02 1017 10 16 N/A
12:53 pm 12:53 Sunny 74 23.3 51 10.6 45 45 W 9 15 30.00 1016 10 16 N/A
1:53 pm 13:53 Sunny 75 23.9 52 11.1 45 45 WNW 10 17 29.99 1016 10 16 N/A
2:53 pm 14:53 Sunny 76 24.4 51 10.6 42 42 WNW 10 17 29.99 1016 10 16 N/A
3:53 pm 15:53 Sunny 77 25 51 10.6 40 40 WSW 8 13 29.97 1015 10 16 N/A
4:53 pm 16:53 Sunny 76 24.4 52 11.1 43 43 WSW 8 13 29.96 1015 10 16 N/A
5:53 pm 17:53 Sunny 75 23.9 50 10 41 41 W 7 11 29.96 1015 10 16 N/A
6:53 pm 18:53 Sunny 75 23.9 50 10 41 41 VRB 7 11 29.96 1015 10 16 N/A
7:53 pm 19:53 Sunny 71 21.7 51 10.6 49 49 W 6 9 29.96 1015 10 16 N/A
8:53 pm 20:53 Clear 61 16.1 55 12.8 81 81 N N/A 29.97 1015 10 16 N/A
9:53 pm 21:53 Clear 58 14.4 54 12.2 87 87 N N/A 29.98 1015 10 16 N/A
10:53 pm 22:53 Clear 57 13.9 54 12.2 90 90 N N/A 29.99 1016 10 16 N/A
11:53 pm 23:53 Clear 56 13.3 53 11.7 90 90 N N/A 29.99 1016 10 16 N/A

Powered by AerisWeather